TV
NORAD ID: 36499
Int'l Code: 2010-010A
Perigee: 35,784.2 km
Apogee: 35,803.6 km
Inclination: 0.0 °
Period: 1,436.1 minutes
Semi major axis: 42164 km
Launch date: March 20, 2010
Source: United States (US)
Comments: Designed to last up to 15 years, EchoStar 14 carries 103 Ku-band transponders that will reach customers across North America.
Two Line Element Set (TLE):
1 36499U 10010A 13169.56983356 .00000000 00000-0 10000-3 0 8980
2 36499 000.0175 003.6301 0002295 056.6703 292.9419 01.00271246 11937
Source: AFSPC
NASA's NSSDC Master Catalog entry for ECHOSTAR 14